COSMOS 1275 DEB

Satellite information

Favourite Embed

Satellite Type and Status

DEBRISIN ORBIT

Key statistics

Satellite COSMOS 1275 DEB at a glance.

Uptime

16208

Days in orbit

Revolutions

≈ 14.0

Per day

Orbit

LEO

Low Earth Orbit

Inclination

83.1

Latest

Satellite identification and parameters

Extended collection of information and parameters for COSMOS 1275 DEB.

Object identification

Identified? True

Debris? True

Object name: COSMOS 1275 DEB

International designator: 1981-053Y

Object number (NORAD): 12668

Object ID (CCSDS): 12668

Country: COMMONWEALTH OF INDEPENDENT STATES (CIS)

Current information (Y/N): Y

RCS size: SMALL

Orbital parameters

Period: 102.624 minutes

Inclination: 83.1011 deg

SMA: 7260.933 km

Apoapsis: 920.674 km

Periapsis: 844.921 km

RAAN: 266.9343 deg

Eccentricy: 0.00521653

Argument of periapsis: 196.3497 deg

Mean anomaly: 218.1314 deg

Mean motion: 14.03182477 rev/day

Mean motion (dot): 0.0000084 rev/day2

B* drag term: 0.00052279772 1/REarth

Two-line elements (TLE)

Creation date: Oct. 19, 2025, 2:20 a.m.

Reference frame: TEME

Reference center: EARTH

Epoch: Oct. 18, 2025, 11 p.m. UTC

TLE line 0: 0 COSMOS 1275 DEB

TLE line 1: 1 12668U 81053Y 25291.95838109 .00000840 00000-0 52280-3 0 9994

TLE line 2: 2 12668 83.1011 266.9343 0052165 196.3497 218.1314 14.03182477252455

Live tracking on map

Real-time ground track for satellite COSMOS 1275 DEB.

In-orbit conjunctions

A list of the most updated potential collisions computed for object COSMOS 1275 DEB.

Target Orbit TCA Probability of collision Miss distance Type
METEOR 2-17 DEB LEO 2025-08-18 09:14:23 0.00019383 191.0 (m) DEBRIS
CZ-6A DEB SSO 2024-12-11 13:57:11 0.0001277157 43.0 (m) DEBRIS

Associated space launch

Navigation satellite providing location information for the Tsiklon-B navigation system

COSMOS 1275 DEB was lifted into orbit during the mission ‘Kosmos-3M | Parus 27’, on board a Kosmos-3M space rocket.

The launch took place on June 4, 1981, 3:41 p.m. from 132/2.

For more information about the launch, click the button.

Launch to space Kosmos-3M | Parus 27
Kosmos-3M | Parus 27

Agency: N/A

Status: Launch Successful

Launch date: June 4, 1981, 3:41 p.m. UTC

Rocket: Kosmos-3M

Launch pad: 132/2

Location: Plesetsk Cosmodrome, Russian Federation

...

Latest news about this satellite

There are no fresh news available about this satellite. Check back as we update our databases every day.


Newsletter sign-up

Weekly statistics, charts and insights to help you stay on top of the space industry.